[[{"header":{"parameterUnit":"m.s-1","parameterCategory":1,"la1":30.2991,"la2":30.254,"lo1":-89.0895,"lo2":-89.0444,"dx":0.0017,"dy":0.0017,"nx":28,"ny":28,"refTime":"2022-11-30T15:00:00:Z","depth":0,"parameterNumber":2,"parameterNumberName":"U-component_of_WINDS"},"data":[0,0,0,0,0,0,0,0,0,0,0,0,0,0,0,0,0,0,0,0,0,0,0,0,0,0,0,0,0,0,0,0,0,0,0,0,0,0,0,0,0,0,0,0,0,0,0,0,0,0,0,0,0,0,0,0,0,0,-4.8675,-4.8676,0,-4.8731,-4.8731,-4.8732,-4.8563,-4.8557,-4.8552,-4.8547,-4.8607,-4.8613,-4.8619,0,0,0,0,0,0,0,0,0,0,0,0,0,-4.8424,-4.843,-4.8675,-4.8676,-4.8677,-4.8731,-4.8731,-4.8732,-4.8563,-4.8557,-4.8551,-4.8545,-4.8605,-4.8612,-4.862,0,0,0,0,0,0,0,0,0,0,0,0,0,-4.8512,-4.8432,-4.8675,-4.8599,-4.8592,-4.8731,-4.8731,-4.8732,-4.8565,-4.8557,-4.8549,-4.8542,-4.8602,-4.8611,-4.8621,-4.8836,0,0,-4.865,-4.8655,0,0,0,0,0,0,0,0,-4.8507,-4.8521,-4.8609,-4.8604,-4.8597,-4.8632,-4.8664,-4.8767,-4.8567,-4.8575,-4.8547,-4.8538,-4.8622,-4.8629,-4.8657,-4.8839,-4.8841,-4.8651,-4.8657,-4.8661,-4.8664,0,0,0,0,0,0,0,-4.8501,-4.8518,-4.8697,-4.8611,-4.8604,-4.8562,-4.8566,-4.8683,-4.8642,-4.8574,-4.8562,-4.8571,-4.8617,-4.8648,-4.8657,-4.8842,-4.8651,-4.8659,-4.8665,-4.8669,-4.9202,-4.921,0,0,0,0,0,0,-4.8505,-4.8514,-4.8695,-4.8699,-4.8532,-4.8573,-4.8577,-4.8629,-4.864,-4.8634,-4.8577,-4.8563,-4.8635,-4.8646,-4.8658,-4.8909,-4.8661,-4.867,-4.8676,-4.9193,-4.9204,-4.9213,0,0,0,0,0,0,-4.85,-4.8523,-4.8693,-4.8603,-4.8622,-4.8586,-4.8645,-4.8634,-4.8664,-4.8642,-4.8634,-4.8616,-4.8629,-4.8645,-4.8792,-4.8908,-4.8674,-4.8683,-4.9184,-4.9196,-4.9208,-4.9413,0,0,0,0,0,0,-4.8494,-4.8522,-4.8603,-4.8606,-4.8627,-4.8827,-4.8652,-4.8641,-4.8681,-4.8663,-4.8677,-4.8672,-4.8624,-4.8779,-4.8802,-4.8918,-4.8691,-4.9173,-4.9189,-4.9204,-4.9396,-4.9431,-4.9462,0,0,0,0,0,-4.8485,-4.866,-4.8608,-4.8631,-4.8728,-4.8834,-4.8845,-4.8787,-4.8691,-4.8772,-4.8758,-4.8671,-4.8893,-4.8796,-4.882,-4.894,-4.9165,-4.9185,-4.9203,-4.9381,-4.9424,-4.9461,0,0,0,0,0,0,-4.8672,-4.8659,-4.8601,-4.8782,-4.881,-4.8805,-4.8905,-4.8835,-4.8892,-4.8872,-4.8798,-4.8802,-4.8963,-4.8967,-4.8859,-4.9148,-4.9012,-4.9037,-4.914,-4.9181,-4.9213,-4.9208,-4.8699,0,0,0,0,0,-4.8734,-4.8821,-4.8804,-4.8965,-4.8982,-4.8942,-4.8986,-4.8938,-4.8965,-4.8976,-4.8972,-4.9002,-4.9078,-4.913,-4.9199,-4.9396,-4.9396,-4.9491,-4.9524,-4.9551,-4.9573,-4.9676,-4.9717,-4.9274,-4.9274,-4.9274,0,0,-4.8863,-4.8867,-4.8926,-4.9003,-4.9019,-4.911,-4.8953,-4.9057,-4.9124,-4.8992,-4.913,-4.913,-4.9158,-4.9331,-4.9407,-4.9339,-4.9695,-4.9575,-4.9597,-4.9603,-4.9699,-4.9741,-4.9779,-4.9287,-4.9285,-4.9283,0,0,-4.9144,-4.9157,-4.929,-4.931,-4.9336,-4.9308,-4.9341,-4.9347,-4.934,-4.9478,-4.938,-4.946,-4.9593,-4.9616,-4.9646,-4.9936,-4.9858,-4.9961,-5.0132,-5.0233,-5.0268,-5.0299,-5.04,-5.0438,-4.9983,-4.9984,-4.9984,0,-4.9302,-4.9435,-4.9369,-4.9479,-4.9515,-4.9399,-4.9534,-4.9557,-4.9605,-4.9633,-4.9556,-4.9719,-4.973,-4.9906,-4.9977,-5.0006,-5.004,-4.9958,-5.0268,-5.0298,-5.0326,-5.0422,-5.0461,-4.9996,-4.9994,-4.9993,-4.9992,0,-4.9626,-4.972,-4.9825,-4.9873,-4.9921,-5.0044,-4.9997,-5.0054,-5.0003,-4.9983,-5.0124,-5.0134,-5.0201,-5.024,-5.0192,-5.041,-5.0366,-5.0281,-5.0142,-5.0381,-5.047,-5.0507,-5.0013,-5.0009,-5.0005,-5.0002,0,0,-5.0025,-5.0034,-5.0074,-5.0094,-5.0114,-5.0186,-5.0303,-5.0369,-5.0418,-5.0456,-5.0552,-5.0667,-5.0587,-5.062,-5.0574,-5.0663,-5.0891,-5.0566,-5.0565,-5.0624,-5.113,-5.1193,-5.1237,-5.084,-5.0847,-5.0852,-5.1127,0,-5.03,-5.0499,-5.0443,-5.0643,-5.0728,-5.062,-5.0722,-5.0746,-5.0731,-5.0801,-5.0785,-5.0867,-5.0756,-5.0775,-5.0859,-5.0845,-5.0991,-5.0825,-5.0927,-5.0932,-5.0921,-5.1283,-5.1351,-5.1609,-5.1161,-5.1167,-5.1171,0,-5.0647,-5.0697,-5.0905,-5.091,-5.0943,-5.1036,-5.1091,-5.116,-5.1185,-5.1168,-5.1206,-5.1141,-5.1256,-5.1119,-5.1276,-5.1165,-5.1204,-5.1204,-5.1212,-5.1218,-5.1065,-5.1297,-5.169,-5.1729,-5.1226,-5.1222,-5.1218,0,-5.0915,-5.1034,-5.1173,-5.1194,-5.1204,-5.1271,-5.1279,-5.1296,-5.1339,-5.1387,-5.1414,-5.1477,-5.151,-5.156,-5.1514,-5.1419,-5.1678,-5.1538,-5.1666,-5.1668,-5.1724,-5.1721,-5.2127,-5.1754,-5.1753,-5.1752,-5.1752,0,-5.1226,-5.1357,-5.1293,-5.1378,-5.1522,-5.1457,-5.1601,-5.1596,-5.1613,-5.1695,-5.1607,-5.1686,-5.1621,-5.1696,-5.1661,-5.1795,-5.1812,-5.1801,-5.1789,-5.1807,-5.1809,-5.183,-5.181,-5.1763,-5.176,-5.1758,-5.1757,0,-5.1549,-5.1511,-5.1655,-5.1653,-5.1655,-5.1761,-5.1759,-5.1838,-5.1817,-5.1923,-5.1944,-5.1911,-5.1994,-5.1953,-5.204,-5.2016,-5.2189,-5.2155,-5.218,-5.217,-5.2301,-5.2288,-5.2733,-5.2788,-5.2382,-5.2386,-5.2389,0,-5.1749,-5.1846,-5.1855,-5.1903,-5.1916,-5.1996,-5.2039,-5.1979,-5.2027,-5.2063,-5.2138,-5.2213,-5.2269,-5.2406,-5.239,-5.2456,-5.2421,-5.2573,-5.243,-5.2445,-5.2421,-5.2415,-5.2423,-5.2601,-5.2606,-5.261,-5.2613,0,-5.2107,-5.2084,-5.2148,-5.2207,-5.226,-5.2303,-5.2339,-5.2384,-5.2325,-5.2384,-5.2467,-5.2511,-5.2598,-5.2673,-5.273,-5.2738,-5.2667,-5.2658,-5.2691,-5.2709,-5.2718,-5.2713,-5.2256,-5.2647,-5.2644,-5.2641,-5.264,-5.2638,-5.2372,-5.2454,-5.2472,-5.2546,-5.2567,-5.2603,-5.2676,-5.2664,-5.2732,-5.2797,-5.2759,-5.2856,-5.2878,-5.2946,-5.2964,-5.3039,-5.2979,-5.3027,-5.3039,-5.3051,-5.3067,-5.2709,-5.305,-5.3049,-5.3048,-5.3047,-5.3046,0,-5.2724,-5.273,-5.28,-5.2852,-5.2911,-5.2838,-5.2874,-5.2928,-5.3014,-5.304,-5.3097,-5.3192,-5.3265,-5.3255,-5.3321,-5.3383,-5.3351,-5.3402,-5.3396,-5.3398,-5.3119,-5.3082,-5.3426,-5.3426,-5.3426,-5.3426,-5.3426,-5.3426,-5.2914,-5.3047,-5.3026,-5.3168,-5.3173,-5.3266,-5.3293,-5.3325,-5.3346,-5.3455,-5.3514,-5.3507,-5.3519,-5.3585,-5.3649,-5.3644,-5.3671,-5.3734,-5.3717,-5.3456,-5.3418,-5.3382,-5.3348,-5.3741,-5.3742,-5.399,-5.3992,-5.3994]},{"header":{"parameterUnit":"m.s-1","parameterCategory":1,"la1":30.2991,"la2":30.254,"lo1":-89.0895,"lo2":-89.0444,"dx":0.0017,"dy":0.0017,"nx":28,"ny":28,"refTime":"2022-11-30T15:00:00:Z","depth":0,"parameterNumber":3,"parameterNumberName":"V-component_of_WINDS"},"data":[0,0,0,0,0,0,0,0,0,0,0,0,0,0,0,0,0,0,0,0,0,0,0,0,0,0,0,0,0,0,0,0,0,0,0,0,0,0,0,0,0,0,0,0,0,0,0,0,0,0,0,0,0,0,0,0,0,0,-0.786,-0.786,0,-0.7849,-0.7849,-0.7849,-0.7888,-0.7889,-0.789,-0.7892,-0.7879,-0.7877,-0.7876,0,0,0,0,0,0,0,0,0,0,0,0,0,-0.7911,-0.791,-0.786,-0.786,-0.786,-0.7849,-0.7849,-0.7849,-0.7888,-0.7889,-0.7891,-0.7892,-0.7879,-0.7878,-0.7876,0,0,0,0,0,0,0,0,0,0,0,0,0,-0.7894,-0.791,-0.786,-0.7878,-0.7879,-0.7849,-0.7849,-0.7849,-0.7888,-0.7889,-0.7891,-0.7893,-0.788,-0.7878,-0.7876,-0.7827,0,0,-0.7869,-0.7868,0,0,0,0,0,0,0,0,-0.7895,-0.7892,-0.7875,-0.7877,-0.7878,-0.7872,-0.7863,-0.7842,-0.7887,-0.7884,-0.7892,-0.7894,-0.7875,-0.7873,-0.7867,-0.7827,-0.7826,-0.7869,-0.7868,-0.7867,-0.7866,0,0,0,0,0,0,0,-0.7896,-0.7892,-0.7856,-0.7875,-0.7877,-0.7886,-0.7885,-0.7859,-0.787,-0.7885,-0.7888,-0.7886,-0.7876,-0.7869,-0.7867,-0.7826,-0.7869,-0.7867,-0.7866,-0.7865,-0.7741,-0.7739,0,0,0,0,0,0,-0.7895,-0.7893,-0.7856,-0.7855,-0.7891,-0.7883,-0.7883,-0.7872,-0.787,-0.7872,-0.7884,-0.7888,-0.7872,-0.787,-0.7867,-0.7808,-0.7867,-0.7865,-0.7863,-0.7743,-0.7741,-0.7739,0,0,0,0,0,0,-0.7896,-0.7891,-0.7857,-0.7875,-0.7871,-0.788,-0.7868,-0.7871,-0.7864,-0.787,-0.7872,-0.7876,-0.7874,-0.787,-0.7836,-0.7808,-0.7864,-0.7862,-0.7746,-0.7743,-0.774,-0.769,0,0,0,0,0,0,-0.7897,-0.7891,-0.7874,-0.7874,-0.787,-0.7827,-0.7867,-0.787,-0.7861,-0.7865,-0.7862,-0.7864,-0.7875,-0.7839,-0.7834,-0.7806,-0.786,-0.7748,-0.7744,-0.7741,-0.7694,-0.7686,-0.7678,0,0,0,0,0,-0.7899,-0.7861,-0.7873,-0.7868,-0.7849,-0.7825,-0.7822,-0.7836,-0.7858,-0.784,-0.7843,-0.7864,-0.7812,-0.7835,-0.783,-0.7801,-0.775,-0.7745,-0.7741,-0.7698,-0.7687,-0.7679,0,0,0,0,0,0,-0.7857,-0.7861,-0.7875,-0.7836,-0.7829,-0.7832,-0.7809,-0.7825,-0.7813,-0.7817,-0.7834,-0.7833,-0.7796,-0.7795,-0.7821,-0.7752,-0.7785,-0.7779,-0.7754,-0.7744,-0.7736,-0.7736,-0.7858,0,0,0,0,0,-0.7843,-0.7824,-0.7829,-0.7794,-0.779,-0.78,-0.779,-0.7801,-0.7795,-0.7793,-0.7794,-0.7787,-0.7769,-0.7757,-0.7741,-0.7695,-0.7693,-0.7672,-0.7664,-0.7657,-0.7652,-0.7624,-0.7614,-0.7724,-0.7724,-0.7724,0,0,-0.7814,-0.7814,-0.7801,-0.7785,-0.7782,-0.776,-0.7797,-0.7774,-0.7758,-0.7789,-0.7757,-0.7757,-0.775,-0.7709,-0.7691,-0.7708,-0.7621,-0.7652,-0.7647,-0.7644,-0.7619,-0.7608,-0.7599,-0.7721,-0.7722,-0.7722,0,0,-0.775,-0.7749,-0.7719,-0.7714,-0.7708,-0.7715,-0.7707,-0.7707,-0.7708,-0.7676,-0.7698,-0.7679,-0.7648,-0.7641,-0.7634,-0.7565,-0.7582,-0.7559,-0.7517,-0.7491,-0.7482,-0.7474,-0.7447,-0.7437,-0.7554,-0.7554,-0.7554,0,-0.7715,-0.7684,-0.7701,-0.7675,-0.7666,-0.7694,-0.7661,-0.7656,-0.7645,-0.7638,-0.7657,-0.7617,-0.7615,-0.7571,-0.7554,-0.7548,-0.7538,-0.7559,-0.7482,-0.7474,-0.7467,-0.7442,-0.7432,-0.7551,-0.7551,-0.7552,-0.7552,0,-0.7639,-0.7618,-0.7594,-0.7582,-0.7571,-0.7542,-0.7552,-0.7539,-0.7551,-0.7555,-0.752,-0.7518,-0.75,-0.7491,-0.7503,-0.7448,-0.7458,-0.7479,-0.7512,-0.7454,-0.7429,-0.742,-0.7547,-0.7548,-0.7549,-0.7549,0,0,-0.7548,-0.7545,-0.7536,-0.7529,-0.7524,-0.7507,-0.7479,-0.7462,-0.7449,-0.744,-0.7415,-0.7388,-0.7406,-0.7398,-0.7409,-0.7385,-0.7327,-0.7409,-0.7409,-0.7391,-0.7264,-0.7246,-0.7235,-0.7339,-0.7338,-0.7336,-0.7263,0,-0.7483,-0.7435,-0.7448,-0.7399,-0.7378,-0.7403,-0.7378,-0.7371,-0.7374,-0.7355,-0.7358,-0.7337,-0.7365,-0.7359,-0.7337,-0.7339,-0.7301,-0.7345,-0.7314,-0.7313,-0.7313,-0.7223,-0.7205,-0.7136,-0.7254,-0.7253,-0.7252,0,-0.7401,-0.7388,-0.7337,-0.7333,-0.7325,-0.7302,-0.7286,-0.7269,-0.7261,-0.7264,-0.7253,-0.7268,-0.7238,-0.7273,-0.723,-0.7259,-0.7247,-0.7246,-0.7244,-0.724,-0.7277,-0.7214,-0.7115,-0.7103,-0.7237,-0.7239,-0.724,0,-0.7336,-0.7307,-0.7271,-0.7266,-0.7261,-0.7244,-0.7241,-0.7235,-0.7223,-0.7209,-0.7201,-0.7184,-0.7174,-0.7159,-0.7168,-0.7193,-0.7123,-0.7159,-0.7123,-0.7123,-0.7106,-0.7107,-0.7001,-0.7102,-0.7102,-0.7103,-0.7103,0,-0.7261,-0.7228,-0.7242,-0.722,-0.7183,-0.7198,-0.716,-0.716,-0.7154,-0.7131,-0.7153,-0.7131,-0.7145,-0.7124,-0.7131,-0.7093,-0.7089,-0.7089,-0.7091,-0.7086,-0.7085,-0.7077,-0.7081,-0.71,-0.7101,-0.7101,-0.7102,0,-0.7182,-0.719,-0.7153,-0.7151,-0.715,-0.7122,-0.712,-0.7099,-0.7103,-0.7073,-0.7067,-0.7073,-0.7049,-0.7057,-0.7031,-0.7036,-0.6987,-0.6996,-0.6989,-0.699,-0.6953,-0.6956,-0.6837,-0.6821,-0.6934,-0.6933,-0.6933,0,-0.7132,-0.7107,-0.7102,-0.7089,-0.7084,-0.7062,-0.705,-0.7063,-0.7049,-0.7037,-0.7016,-0.6994,-0.6977,-0.6936,-0.6937,-0.6917,-0.6924,-0.6884,-0.6921,-0.6916,-0.692,-0.6921,-0.6917,-0.6876,-0.6875,-0.6874,-0.6873,0,-0.7042,-0.7047,-0.7029,-0.7011,-0.6996,-0.6983,-0.6971,-0.6959,-0.6971,-0.6954,-0.6929,-0.6916,-0.6889,-0.6865,-0.6846,-0.6842,-0.6858,-0.6861,-0.6851,-0.6845,-0.6841,-0.684,-0.6966,-0.6864,-0.6865,-0.6865,-0.6866,-0.6866,-0.6975,-0.6952,-0.6945,-0.6923,-0.6916,-0.6904,-0.6883,-0.6884,-0.6864,-0.6843,-0.6852,-0.6823,-0.6813,-0.6789,-0.6782,-0.6759,-0.6774,-0.6761,-0.6757,-0.6752,-0.6746,-0.6846,-0.6756,-0.6756,-0.6756,-0.6756,-0.6757,0,-0.6883,-0.6879,-0.6859,-0.6842,-0.6824,-0.6842,-0.683,-0.6813,-0.6787,-0.6778,-0.676,-0.673,-0.6707,-0.6706,-0.6683,-0.6664,-0.6671,-0.6658,-0.6658,-0.6656,-0.6735,-0.6745,-0.6653,-0.6653,-0.6653,-0.6653,-0.6653,-0.6653,-0.6834,-0.6796,-0.68,-0.6758,-0.6754,-0.6726,-0.6717,-0.6705,-0.6697,-0.6663,-0.6644,-0.6643,-0.6636,-0.6613,-0.6592,-0.6592,-0.6582,-0.6565,-0.6567,-0.6641,-0.6651,-0.6661,-0.667,-0.6563,-0.6563,-0.649,-0.6489,-0.6489]}]]